GW5237 Weather Reports


Display with metric or nautical units.
time (UTC)temp
F
wind
direction
speed
MPH
gust
MPH
rain 1hr
in
rain 24hr
in
rain mn
in
humidity
%
barometer
mb
20260906123242 72 70 0.0 0.0 0.00 0.01 0.01 99 1012.0
20260906122742 72 67 1.0 1.0 0.00 0.01 0.01 99 1012.0
20260906122237 71 53 0.0 0.0 0.00 0.01 0.01 99 1011.8
20260906121733 71 26 2.0 3.0 0.00 0.01 0.01 99 1012.1
20260906121229 71 47 0.0 1.0 0.00 0.01 0.01 99 1011.9
20260906120725 71 34 2.0 2.0 0.00 0.01 0.01 99 1011.7
20260906120221 71 64 0.0 0.0 0.00 0.01 0.01 99 1011.9
20260906115717 71 40 0.0 0.0 0.00 0.01 0.01 99 1011.9
20260906115212 71 50 0.0 0.0 0.00 0.01 0.01 99 1011.7
20260906114711 71 63 0.0 0.0 0.00 0.01 0.01 99 1011.8
20260906114206 71 67 0.0 0.0 0.00 0.01 0.01 99 1011.7
20260906113702 70 67 0.0 1.0 0.00 0.01 0.01 99 1011.6
20260906113201 70 71 0.0 0.0 0.00 0.01 0.01 99 1011.6
20260906112700 70 71 0.0 0.0 0.00 0.01 0.01 99 1011.5
20260906112158 70 71 0.0 0.0 0.00 0.01 0.01 99 1011.6
20260906111657 70 72 0.0 0.0 0.00 0.01 0.01 99 1011.7
20260906111151 70 72 0.0 0.0 0.00 0.01 0.01 99 1011.4
20260906110646 70 76 2.0 2.0 0.00 0.01 0.01 99 1011.3
20260906110142 70 77 0.0 0.0 0.00 0.01 0.01 99 1011.3
20260906105635 70 77 0.0 0.0 0.00 0.01 0.01 99 1011.2
20260906105132 70 77 0.0 0.0 0.00 0.01 0.01 99 1011.3
20260906104631 70 77 0.0 0.0 0.00 0.01 0.01 99 1010.9
20260906104131 70 77 0.0 0.0 0.00 0.01 0.01 99 1011.0
20260906103629 70 77 0.0 0.0 0.00 0.01 0.01 99 1011.0
20260906103124 70 77 0.0 1.0 0.00 0.01 0.01 99 1010.8
20260906102620 70 53 0.0 0.0 0.00 0.01 0.01 99 1011.0
20260906102114 70 53 0.0 0.0 0.00 0.01 0.01 99 1010.9
20260906101614 70 47 0.0 0.0 0.00 0.01 0.01 99 1010.8
20260906101114 70 47 0.0 0.0 0.00 0.01 0.01 99 1010.9
20260906100610 70 47 0.0 0.0 0.00 0.01 0.01 99 1010.9
20260906100110 70 47 0.0 0.0 0.00 0.01 0.01 99 1010.7
20260906095610 70 47 0.0 0.0 0.00 0.01 0.01 99 1010.6
20260906095105 70 47 0.0 0.0 0.00 0.01 0.01 99 1010.4
20260906094604 70 47 0.0 0.0 0.00 0.01 0.01 99 1010.4
20260906094100 70 47 0.0 0.0 0.00 0.01 0.01 99 1010.3
20260906093556 70 47 0.0 0.0 0.00 0.01 0.01 99 1010.5
20260906093051 70 47 0.0 0.0 0.00 0.01 0.01 99 1010.4
20260906092546 70 47 0.0 0.0 0.00 0.01 0.01 99 1010.1
20260906092041 70 47 0.0 0.0 0.00 0.01 0.01 99 1010.1
20260906091537 70 47 0.0 0.0 0.00 0.01 0.01 99 1010.2
20260906091033 71 47 0.0 0.0 0.00 0.01 0.01 99 1010.1
20260906090534 71 47 0.0 0.0 0.00 0.01 0.01 99 1010.2
20260906090034 71 47 0.0 0.0 0.00 0.01 0.01 98 1010.2
20260906085532 71 47 0.0 0.0 0.00 0.01 0.01 98 1010.3
20260906085033 71 47 0.0 0.0 0.00 0.01 0.01 98 1010.1
20260906084533 71 47 1.0 1.0 0.00 0.01 0.01 98 1010.3
20260906084031 71 47 1.0 1.0 0.00 0.01 0.01 98 1010.2
20260906083527 71 46 1.0 2.0 0.00 0.01 0.01 98 1010.1
20260906083027 71 83 0.0 0.0 0.00 0.01 0.01 98 1010.0
20260906082522 71 84 0.0 1.0 0.00 0.01 0.01 98 1010.0
20260906082018 71 55 1.0 1.0 0.00 0.01 0.01 98 1010.3
20260906081514 71 56 0.0 0.0 0.00 0.01 0.01 98 1010.4
20260906081009 71 56 0.0 0.0 0.00 0.01 0.01 98 1010.4
20260906080506 71 142 1.0 1.0 0.00 0.01 0.01 98 1010.2
20260906080002 71 143 0.0 0.0 0.00 0.01 0.01 98 1010.2
20260906075456 71 143 0.0 0.0 0.00 0.01 0.01 98 1010.1
20260906074951 71 143 0.0 0.0 0.00 0.01 0.01 98 1010.2
20260906074450 71 143 0.0 0.0 0.00 0.01 0.01 98 1010.5
20260906073949 71 143 0.0 0.0 0.00 0.01 0.01 98 1010.0
20260906073444 71 143 0.0 0.0 0.00 0.01 0.01 98 1010.3
20260906072940 71 143 0.0 0.0 0.00 0.01 0.01 98 1010.3
20260906072435 71 143 0.0 0.0 0.00 0.01 0.01 98 1010.0
20260906071931 71 143 0.0 0.0 0.00 0.01 0.01 98 1010.0
20260906071427 71 143 0.0 0.0 0.00 0.01 0.01 98 1010.0
20260906070923 71 143 0.0 0.0 0.00 0.01 0.01 98 1010.1
20260906070418 71 143 0.0 0.0 0.00 0.01 0.01 98 1010.1
20260906065914 71 143 0.0 0.0 0.00 0.01 0.01 98 1010.1
20260906065408 71 143 0.0 0.0 0.00 0.01 0.01 98 1010.2
20260906064904 71 143 0.0 0.0 0.00 0.01 0.01 98 1010.0
20260906064400 71 143 0.0 0.0 0.00 0.01 0.01 98 1010.1
20260906063900 71 102 0.0 0.0 0.00 0.01 0.01 98 1010.0
20260906063355 71 102 0.0 0.0 0.00 0.01 0.01 98 1010.1
20260906062850 71 101 0.0 0.0 0.00 0.01 0.01 98 1010.3
20260906062349 71 102 0.0 0.0 0.00 0.01 0.01 98 1010.2
20260906061845 71 102 0.0 0.0 0.05 0.01 0.01 98 1010.5
20260906061342 71 102 0.0 0.0 0.05 0.01 0.01 98 1010.5
20260906060836 72 59 0.0 0.0 0.00 0.00 0.00 98 1010.5
20260906060335 72 57 0.0 0.0 0.00 0.00 0.00 98 1010.8
20260906055830 72 67 0.0 0.0 0.00 0.00 0.00 98 1010.8
20260906055326 72 90 1.0 1.0 0.00 0.00 0.00 98 1010.5
20260906054820 72 92 0.0 0.0 0.00 0.00 0.00 98 1010.7
20260906054315 72 88 0.0 0.0 0.00 0.00 0.00 98 1010.9
20260906053812 72 68 0.0 1.0 0.00 0.00 0.00 98 1010.9
20260906053307 72 62 0.0 0.0 0.00 0.00 0.00 98 1010.9
20260906052802 71 64 0.0 0.0 0.00 0.00 0.00 98 1010.9
20260906052258 71 47 0.0 0.0 0.00 0.00 0.00 98 1011.0
20260906051756 71 47 0.0 0.0 0.00 0.00 0.00 98 1010.8
20260906051254 71 37 0.0 0.0 0.00 0.00 0.00 98 1011.0
20260906050750 71 37 0.0 0.0 0.00 0.00 0.00 98 1011.0
20260906050246 71 37 0.0 0.0 0.00 0.00 0.00 98 1011.0
20260906045744 71 37 0.0 0.0 0.00 0.00 0.00 98 1011.2
20260906045239 71 37 0.0 0.0 0.00 0.00 0.00 98 1010.9
20260906044735 71 36 0.0 0.0 0.00 0.00 0.00 98 1010.9
20260906044230 71 47 0.0 0.0 0.00 0.00 0.00 98 1011.0
20260906043726 72 48 0.0 0.0 0.00 0.00 0.00 98 1010.8
20260906043221 71 58 0.0 0.0 0.00 0.00 0.00 98 1011.1
20260906042720 72 143 0.0 0.0 0.00 0.00 0.00 98 1010.8
20260906042220 71 129 0.0 0.0 0.00 0.00 0.00 98 1010.5
20260906041715 71 128 0.0 0.0 0.00 0.00 0.00 97 1010.8
20260906041210 72 128 0.0 0.0 0.00 0.00 0.00 97 1010.6
20260906040706 72 128 0.0 0.0 0.00 0.00 0.00 97 1010.7
20260906040201 72 129 0.0 0.0 0.00 0.00 0.00 97 1010.6
20260906035651 72 129 0.0 0.0 0.00 0.29 0.29 97 1010.5
20260906035147 72 128 0.0 0.0 0.00 0.29 0.29 97 1010.7
20260906034641 72 82 0.0 0.0 0.00 0.29 0.29 97 1010.6
20260906034135 72 84 0.0 0.0 0.00 0.29 0.29 97 1010.7
20260906033631 72 40 1.0 2.0 0.00 0.29 0.29 97 1010.9
20260906033126 72 42 1.0 1.0 0.00 0.29 0.29 97 1011.1
20260906032623 72 28 2.0 2.0 0.00 0.29 0.29 97 1010.9
20260906032123 72 345 2.0 2.0 0.00 0.29 0.29 97 1010.9
20260906031618 72 333 3.0 3.0 0.00 0.29 0.29 97 1011.1
20260906031113 72 328 3.0 3.0 0.00 0.29 0.29 97 1011.2
20260906030612 72 327 3.0 3.0 0.00 0.29 0.29 97 1011.1
20260906030107 72 57 0.0 0.0 0.00 0.29 0.29 97 1011.6
20260906025607 72 27 2.0 2.0 0.00 0.29 0.29 97 1011.5
20260906025105 72 21 3.0 4.0 0.00 0.29 0.29 97 1011.5
20260906024600 72 42 1.0 1.0 0.00 0.29 0.29 97 1011.6
20260906024055 72 36 0.0 1.0 0.00 0.29 0.29 97 1011.3
20260906023551 73 48 0.0 0.0 0.00 0.29 0.29 97 1011.6
20260906023046 73 143 0.0 0.0 0.00 0.29 0.29 97 1011.5
20260906022541 73 49 0.0 1.0 0.00 0.29 0.29 97 1011.0
20260906022037 73 195 2.0 2.0 0.00 0.29 0.29 97 1011.4
20260906021532 73 20 2.0 2.0 0.00 0.29 0.29 97 1011.5
20260906021031 73 30 1.0 1.0 0.00 0.29 0.29 97 1011.4
20260906020530 73 33 1.0 2.0 0.00 0.29 0.29 97 1011.3
20260906020025 73 64 0.0 0.0 0.00 0.29 0.29 97 1011.4
20260906015524 73 270 2.0 3.0 0.00 0.29 0.29 97 1011.4
20260906015023 73 156 1.0 1.0 0.00 0.29 0.29 97 1011.3
20260906014518 73 167 1.0 2.0 0.00 0.29 0.29 97 1011.3
20260906014014 73 225 3.0 3.0 0.00 0.29 0.29 97 1011.6
20260906013509 73 161 2.0 2.0 0.00 0.29 0.29 97 1011.3
20260906013005 73 154 1.0 2.0 0.00 0.29 0.29 97 1011.4
20260906012500 73 220 4.0 4.0 0.00 0.29 0.29 97 1011.0
20260906011959 73 225 2.0 2.0 0.00 0.29 0.29 96 1010.9
20260906011455 73 181 1.0 2.0 0.00 0.29 0.29 96 1010.8
20260906010950 73 271 3.0 4.0 0.00 0.29 0.29 96 1010.8
20260906010445 73 189 3.0 3.0 0.00 0.29 0.29 96 1010.5
20260906005942 73 220 2.0 4.0 0.00 0.29 0.29 96 1010.3
20260906005441 73 190 3.0 3.0 0.00 0.29 0.29 96 1010.1
20260906004939 73 227 3.0 3.0 0.00 0.29 0.29 96 1009.9
20260906004434 73 10 2.0 2.0 0.00 0.29 0.29 96 1009.8
20260906003930 73 158 1.0 1.0 0.00 0.29 0.29 96 1009.6
20260906003430 73 358 1.0 1.0 0.12 0.29 0.29 96 1009.8
20260906002925 73 104 0.0 0.0 0.42 0.29 0.29 96 1009.9
20260906002425 73 171 2.0 2.0 0.31 0.27 0.27 96 1009.8
20260906001920 73 159 1.0 1.0 0.00 0.22 0.22 96 1009.9
20260906001416 73 142 1.0 2.0 0.05 0.22 0.22 95 1010.0
20260906000911 73 241 1.0 2.0 0.05 0.22 0.22 95 1010.3
20260906000406 73 288 2.0 2.0 0.07 0.21 0.21 95 1010.3
20260905235901 73 161 0.0 1.0 0.14 0.21 0.21 95 1010.0
20260905235355 73 198 3.0 3.0 0.07 0.20 0.20 95 1010.1
20260905234850 73 162 2.0 3.0 0.05 0.19 0.19 95 1010.1
20260905234345 73 125 1.0 1.0 0.05 0.19 0.19 95 1010.1
20260905233840 74 103 0.0 1.0 0.00 0.18 0.18 94 1010.0
20260905233335 74 90 1.0 1.0 0.00 0.18 0.18 94 1009.4
20260905232834 74 51 0.0 0.0 0.00 0.18 0.18 94 1009.1
20260905232331 74 65 0.0 0.0 0.00 0.18 0.18 95 1009.3
20260905231826 75 105 1.0 2.0 0.00 0.18 0.18 94 1008.6
20260905231321 75 137 2.0 3.0 0.07 0.18 0.18 94 1008.7
20260905230818 74 128 2.0 2.0 0.07 0.18 0.18 94 1009.0
20260905230315 74 117 0.0 1.0 0.00 0.17 0.17 93 1008.9
20260905225815 74 125 2.0 2.0 0.00 0.17 0.17 92 1009.1
20260905225310 75 253 2.0 2.0 0.35 0.17 0.17 91 1009.8
20260905224810 75 181 2.0 2.0 0.66 0.17 0.17 91 1010.3
20260905224305 75 158 2.0 2.0 0.35 0.11 0.11 90 1011.2
20260905223800 76 201 9.0 10.0 0.35 0.06 0.06 88 1011.5
20260905223258 77 64 2.0 2.0 0.31 0.05 0.05 85 1009.0
20260905222753 79 79 5.0 7.0 0.07 0.01 0.01 78 1008.7
20260905222252 81 104 3.0 6.0 0.00 0.00 0.00 75 1009.3
20260905221748 83 90 7.0 14.0 0.00 0.00 0.00 73 1009.2
20260905221244 85 28 7.0 16.0 0.00 0.00 0.00 72 1009.6
20260905220740 88 19 5.0 8.0 0.00 0.00 0.00 69 1009.0
20260905220236 91 331 5.0 8.0 0.00 0.00 0.00 67 1008.6
20260905215735 91 42 2.0 2.0 0.00 0.00 0.00 66 1008.6
20260905215231 92 72 0.0 0.0 0.00 0.00 0.00 64 1008.5
20260905214721 93 46 2.0 2.0 0.00 0.00 0.00 61 1008.5
20260905214216 93 49 0.0 0.0 0.00 0.00 0.00 60 1008.1
20260905213711 94 28 2.0 2.0 0.00 0.00 0.00 59 1008.0
20260905213207 94 42 0.0 1.0 0.00 0.00 0.00 58 1007.7
20260905212702 94 28 2.0 2.0 0.00 0.00 0.00 57 1007.7
20260905212201 95 332 3.0 3.0 0.00 0.00 0.00 56 1007.6
20260905211656 95 358 4.0 4.0 0.00 0.00 0.00 56 1007.7
20260905211151 96 33 2.0 3.0 0.00 0.00 0.00 55 1008.0
20260905210648 96 344 4.0 6.0 0.00 0.00 0.00 54 1007.8
20260905210143 96 21 3.0 4.0 0.00 0.00 0.00 54 1007.9
20260905205642 96 312 4.0 4.0 0.00 0.00 0.00 52 1008.0
20260905205142 96 333 2.0 3.0 0.00 0.00 0.00 52 1007.7
20260905204641 96 22 2.0 3.0 0.00 0.00 0.00 51 1007.8
20260905204136 96 325 2.0 3.0 0.00 0.00 0.00 52 1007.8
20260905203631 96 345 5.0 6.0 0.00 0.00 0.00 51 1007.6
20260905203126 97 313 4.0 4.0 0.00 0.00 0.00 50 1007.6
20260905202622 98 260 6.0 7.0 0.00 0.00 0.00 49 1007.6
20260905202117 98 319 4.0 6.0 0.00 0.00 0.00 50 1007.6
20260905201612 98 299 8.0 10.0 0.00 0.00 0.00 49 1007.6
20260905201112 98 311 5.0 8.0 0.00 0.00 0.00 50 1007.5
20260905200608 97 282 2.0 3.0 0.00 0.00 0.00 52 1007.5
20260905195556 98 197 3.0 3.0 0.00 0.00 0.00 48 1007.8
20260905195052 98 292 4.0 6.0 0.00 0.00 0.00 49 1007.9
20260905194551 98 296 5.0 6.0 0.00 0.00 0.00 51 1008.2
20260905194050 98 238 4.0 4.0 0.00 0.00 0.00 49 1008.2
20260905193546 98 271 4.0 4.0 0.00 0.00 0.00 51 1008.4
20260905193041 98 249 8.0 9.0 0.00 0.00 0.00 48 1008.2
20260905192536 98 278 5.0 6.0 0.00 0.00 0.00 50 1008.1
20260905192033 98 288 4.0 6.0 0.00 0.00 0.00 50 1008.4
20260905191530 98 284 7.0 8.0 0.00 0.00 0.00 48 1008.6
20260905191029 98 349 3.0 3.0 0.00 0.00 0.00 47 1008.7
20260905190527 99 304 3.0 3.0 0.00 0.00 0.00 51 1008.8
20260905190022 98 186 5.0 6.0 0.00 0.00 0.00 51 1008.8
20260905185521 98 312 2.0 3.0 0.00 0.00 0.00 51 1008.9
20260905185020 97 45 2.0 2.0 0.00 0.00 0.00 54 1008.9
20260905184515 97 0 3.0 4.0 0.00 0.00 0.00 54 1009.0
20260905184014 97 221 4.0 4.0 0.00 0.00 0.00 55 1009.2
20260905183514 97 272 3.0 4.0 0.00 0.00 0.00 53 1009.2
20260905183009 98 40 3.0 3.0 0.00 0.00 0.00 55 1009.2
20260905182508 97 267 3.0 3.0 0.00 0.00 0.00 54 1009.2
20260905182003 96 263 4.0 6.0 0.00 0.00 0.00 53 1009.4
20260905181458 96 212 2.0 3.0 0.00 0.00 0.00 57 1009.5
20260905180957 96 1 2.0 3.0 0.00 0.00 0.00 58 1009.7
20260905180452 97 358 5.0 6.0 0.00 0.00 0.00 58 1009.8
20260905175947 97 233 2.0 3.0 0.00 0.00 0.00 56 1009.8
20260905175446 96 300 3.0 3.0 0.00 0.00 0.00 59 1010.0
20260905174942 96 223 2.0 3.0 0.00 0.00 0.00 57 1010.1
20260905174437 95 96 2.0 3.0 0.00 0.00 0.00 58 1009.9
20260905173933 96 281 7.0 10.0 0.00 0.00 0.00 58 1009.9
20260905173429 95 286 3.0 4.0 0.00 0.00 0.00 59 1010.0
20260905172925 95 300 4.0 4.0 0.00 0.00 0.00 61 1010.1
20260905172422 95 274 6.0 7.0 0.00 0.00 0.00 58 1010.2
20260905171918 95 314 3.0 3.0 0.00 0.00 0.00 61 1010.2
20260905171415 94 303 3.0 4.0 0.00 0.00 0.00 62 1010.3
20260905170911 94 288 5.0 6.0 0.00 0.00 0.00 62 1010.5
20260905170407 95 310 5.0 6.0 0.00 0.00 0.00 60 1010.5
20260905165901 94 39 4.0 4.0 0.00 0.00 0.00 61 1010.5
20260905165356 94 6 2.0 3.0 0.00 0.00 0.00 62 1010.6
20260905164856 94 323 5.0 9.0 0.00 0.00 0.00 63 1010.7
20260905164350 94 56 1.0 1.0 0.00 0.00 0.00 66 1010.8
20260905163846 94 3 2.0 3.0 0.00 0.00 0.00 64 1010.9
20260905163342 93 289 4.0 6.0 0.00 0.00 0.00 64 1011.2
20260905162838 93 307 4.0 4.0 0.00 0.00 0.00 65 1011.1
20260905162338 93 312 3.0 3.0 0.00 0.00 0.00 65 1011.1
20260905161832 93 343 3.0 4.0 0.00 0.00 0.00 66 1011.2
20260905161332 92 49 2.0 2.0 0.00 0.00 0.00 66 1011.4
20260905160830 93 2 4.0 4.0 0.00 0.00 0.00 67 1011.3
20260905160325 92 305 4.0 4.0 0.00 0.00 0.00 66 1011.5
20260905155819 92 327 6.0 8.0 0.00 0.00 0.00 68 1011.6
20260905155318 92 284 6.0 9.0 0.00 0.00 0.00 66 1011.5
20260905154813 92 310 7.0 8.0 0.00 0.00 0.00 67 1011.6
20260905154308 91 7 1.0 2.0 0.00 0.00 0.00 69 1011.8
20260905153803 91 297 4.0 4.0 0.00 0.00 0.00 68 1011.6
20260905153300 91 324 8.0 10.0 0.00 0.00 0.00 68 1011.7
20260905152754 91 241 4.0 4.0 0.00 0.00 0.00 69 1011.8
20260905152248 90 285 4.0 6.0 0.00 0.00 0.00 68 1011.6
20260905151748 90 327 8.0 10.0 0.00 0.00 0.00 68 1011.7
20260905151244 90 313 9.0 10.0 0.00 0.00 0.00 69 1011.6
20260905150743 89 349 3.0 6.0 0.00 0.00 0.00 70 1011.6
20260905150238 90 326 7.0 9.0 0.00 0.00 0.00 70 1011.6
20260905145735 89 325 9.0 11.0 0.00 0.00 0.00 70 1011.8
20260905145230 89 329 7.0 9.0 0.00 0.00 0.00 71 1011.7
20260905144728 89 251 5.0 7.0 0.00 0.00 0.00 72 1012.0
20260905144224 89 328 7.0 8.0 0.00 0.00 0.00 72 1011.8
20260905143718 89 259 9.0 10.0 0.00 0.00 0.00 72 1011.8
20260905143218 89 36 4.0 6.0 0.00 0.00 0.00 73 1011.7
20260905142716 88 46 3.0 4.0 0.00 0.00 0.00 74 1011.7
20260905142211 88 214 5.0 8.0 0.00 0.00 0.00 73 1011.7
20260905141706 88 290 4.0 6.0 0.00 0.00 0.00 75 1011.6
20260905141203 88 260 6.0 9.0 0.00 0.00 0.00 75 1011.6
20260905140657 87 195 5.0 7.0 0.00 0.00 0.00 76 1011.7
20260905140156 87 308 6.0 7.0 0.00 0.00 0.00 77 1011.9
20260905135651 86 246 6.0 8.0 0.00 0.00 0.00 76 1011.9
20260905135147 86 240 2.0 3.0 0.00 0.00 0.00 78 1011.8
20260905134641 85 319 6.0 8.0 0.00 0.00 0.00 79 1011.8
20260905134140 86 283 7.0 8.0 0.00 0.00 0.00 78 1011.8
20260905133636 85 243 4.0 4.0 0.00 0.00 0.00 79 1012.0
20260905133135 85 267 6.0 8.0 0.00 0.00 0.00 80 1012.0
20260905132635 85 236 3.0 3.0 0.00 0.00 0.00 80 1012.0
20260905132130 85 326 4.0 6.0 0.00 0.00 0.00 80 1012.0
20260905131625 84 220 2.0 6.0 0.00 0.00 0.00 81 1012.2
20260905131120 84 267 4.0 4.0 0.00 0.00 0.00 82 1012.1
20260905130615 83 301 4.0 7.0 0.00 0.00 0.00 82 1012.1
20260905130114 83 261 6.0 7.0 0.00 0.00 0.00 83 1012.1
20260905125609 83 2 2.0 4.0 0.00 0.00 0.00 83 1012.1
20260905125104 83 252 3.0 4.0 0.00 0.00 0.00 84 1012.2
20260905124602 82 295 2.0 3.0 0.00 0.00 0.00 85 1012.4
20260905124057 82 232 6.0 7.0 0.00 0.00 0.00 85 1012.1
20260905123552 82 241 4.0 4.0 0.00 0.00 0.00 86 1012.1